Powrót do katalogu

BREEZE-M DEB

AktywnyMEO
NORAD 41548·DEBRIS·🇷🇺 Russia

Wystrzelony Dec 13, 2015 z Baikonur Cosmodrome

Loading…

Następne Przeloty (najbliższe 24 godziny)

TLE

ŚwieżeSource: Space-Track

Epoka: Sep 13, 2026, 17:10 UTC

1 41548U 15075J   26256.71593624 -.00000004  00000-0  00000-0 0  9993
2 41548   8.8856  54.9023 0375869 138.9327 224.0947  1.02191171 40176

Śledź BREEZE-M DEB w czasie rzeczywistym z AllMySat

Download on the App Store